Regional Weather Roundup
Issued by NWS

Home | Current Version | Previous Version | Text Only | Print | Product List | Glossary On
Versions: 1 2 3 4 5 6 7 8 9 10 11 12 13 14 15 16 17 18 19 20 21 22 23 24 25 26 27 28 29 30 31 32 33 34 35 36 37 38 39 40 41 42 43 44 45 46 47 48 49 50
000
ASUS43 KOAX 211510
RWRNE

WEATHER ROUNDUP FOR NEBRASKA
NATIONAL WEATHER SERVICE OMAHA NE
1000 AM CDT SUN SEP 21 2014

NOTES: SATELLITE DATA IS BEING USED TO AUGMENT CLOUD COVER ABOVE
       12000 FEET.
       "FAIR" INDICATES FEW OR NO CLOUDS BELOW 12,000 FEET WITH NO
       SIGNIFICANT WEATHER AND/OR OBSTRUCTIONS TO VISIBILITY.

  * THESE STATIONS DO NOT REPORT WEATHER SUCH AS RAIN...SNOW OR FOG.

NEZ001>004-019>022-054>056-211600-
NEBRASKA PANHANDLE

CITY           SKY/WX    TMP DP  RH WIND       PRES   REMARKS
SCOTTSBLUFF    CLOUDY    59  43  55 E5        30.39R
ALLIANCE       MOSUNNY   57  41  55 CALM      30.38R
CHADRON        SUNNY     53  43  68 CALM      30.37S
KIMBALL        MOSUNNY   61  39  43 SE7       30.40R
SIDNEY         CLOUDY    60  39  45 E6        30.42R
$$

NEZ057>060-069>072-079>082-211600-
SOUTHWEST NEBRASKA

CITY           SKY/WX    TMP DP  RH WIND       PRES   REMARKS
NORTH PLATTE   CLOUDY    56  45  66 SW3       30.35R
IMPERIAL       MOSUNNY   64  41  42 NE8       30.37R
LEXINGTON      MOSUNNY   60  48  64 N3        30.34R
MCCOOK         PTSUNNY   65  43  44 NE9       30.34R
OGALLALA       CLOUDY    59  49  69 CALM      30.38R
$$

NEZ005>010-023>029-035>040-094-211600-
NORTH CENTRAL NEBRASKA

CITY           SKY/WX    TMP DP  RH WIND       PRES   REMARKS
VALENTINE      SUNNY     62  42  47 VRB3      30.34R
AINSWORTH      SUNNY     58  43  56 NW7       30.33R
BROKEN BOW     SUNNY     65  41  41 N8        30.32R
O`NEILL        SUNNY     59  46  61 NW12      30.30R
ORD            SUNNY     58  45  62 N7        30.30R
THEDFORD       SUNNY     62  42  47 N6        30.35R
$$

NEZ041-046>049-061>064-073>077-083>087-211600-
SOUTH CENTRAL NEBRASKA

CITY           SKY/WX    TMP DP  RH WIND       PRES   REMARKS
GRAND ISLAND   SUNNY     65  44  46 N9        30.30R
AURORA         SUNNY     62  43  49 N10       30.29R
HASTINGS       SUNNY     63  43  48 N10       30.29R
HEBRON         SUNNY     65  44  47 N7        30.27R
HOLDREGE       SUNNY     61  43  51 N12       30.32R
KEARNEY *      SUNNY     61  45  55 NW10      30.32R
YORK           SUNNY     61  48  63 N9        30.28R
$$

NEZ011>018-030>034-042>045-211600-
NORTHEAST NEBRASKA

CITY           SKY/WX    TMP DP  RH WIND       PRES   REMARKS
NORFOLK        SUNNY     62  46  55 NW9       30.26R
ALBION         SUNNY     60  44  55 NW8       30.29R
BLAIR          SUNNY     62  48  61 NW12G17   30.22R
COLUMBUS *     SUNNY     63  45  51 N13       30.28R
FREMONT        SUNNY     62  47  57 NW14      30.24R
TEKAMAH        SUNNY     64  47  53 NW12G20   30.21R
WAYNE          SUNNY     61  47  59 NW10      30.25R
$$

NEZ050>053-065>068-078-088>093-211600-
SOUTHEAST NEBRASKA

CITY           SKY/WX    TMP DP  RH WIND       PRES   REMARKS
LINCOLN        SUNNY     65  46  50 NW14      30.25R
OMAHA EPPLEY   SUNNY     63  47  55 NW15      30.22R
BEATRICE       SUNNY     67  47  49 N15       30.24R
FALLS CITY     SUNNY     66  51  58 NW10      30.19R
NEBRASKA CITY    N/A     64  40  40 N12G20    30.21R
PLATTSMOUTH    SUNNY     62  47  58 NW9       30.21S
$$

NEZ044-045-051>053-067-211600-
OMAHA AREA

CITY           SKY/WX    TMP DP  RH WIND       PRES   REMARKS
OMAHA EPPLEY   SUNNY     63  47  55 NW15      30.22R
BLAIR          SUNNY     62  48  61 NW12G17   30.22R
FREMONT        SUNNY     62  47  57 NW14      30.24R
MILLARD        SUNNY     62  48  58 NW7       30.22R
OFFUTT AFB     SUNNY     64  50  61 N12       30.21R
PLATTSMOUTH    SUNNY     62  47  58 NW9       30.21S
WAHOO          FAIR      63  46  52 NW10      30.24R
$$


USA.gov is the U.S. government's official web portal to all federal, state and local government web resources and services.